Погода в Варденисе

Армения     40°11′04″N   45°43′37″E
темп.,
°C
ветер,
м/с
пор.,
м/с
влажн.,
%
обл.,
%
осадки,
мм/ч
давл.,
гПа
погр.,
м
12 апреля, пн
пн1201:00+3вюв579322 0.0 1016155
04:00+2вюв46828 0.0 101676
07:00+2вюв44710 0.0 101765
10:00+8юв23390 0.0 1014912
13:00+11ююз15300 0.0 10132088
16:00+12ю69251 0.0 10122911
19:00+9вюв45470 0.1 1014162
22:00+4в68790 0.2 1017206
13 апреля, вт
вт1301:00+3в58813 0.0 1017177
04:00+2в588936 0.0 1018166
07:00+1в579111 0.0 1019196
10:00+7вюв66551 0.0 1017651
13:00+11вюв7103898 0.1 10142537
16:00+11юв610368 0.6 10122251
19:00+5в478236 2.5 1015509
22:00+4в7118749 3.6 1014652
14 апреля, ср
ср1401:00+3ююз2494100 1.3 1013450
04:00+1вюв34721 3.6 101563
07:000юв12667 0.0 101741
10:00+4юз255038 0.0 10151494
13:00+5зсз3454100 0.2 10151328
16:00+6з785142 0.8 10141671
19:00+4зсз47561 0.1 1016691
22:00+2з126242 0.1 101832
15 апреля, чт
чт1501:00+2зюз11645 0.0 101731
04:00+1юз01641 0.0 101718
07:00+1в11653 0.0 101827
10:00+6зсз35459 0.0 10161029
13:00+9зсз45405 0.0 10151325
16:00+9сз45385 0.0 10141407
19:00+7зсз224798 0.0 101447
22:00+5вюв2252100 0.0 101618
16 апреля, пт
пт1601:00+5в3355100 0.0 101549
04:00+5вюв1155100 0.0 101419
07:00+4ююз2366100 0.0 101578
10:00+7юв2258100 0.1 1015627
13:00+9зсз564915 1.0 10131561
16:00+10зсз684651 1.9 10131854
19:00+8сз355923 2.4 1014223
22:00+4ююз117536 2.9 101712